Date String (YYYY-MM-DD hh:mm:ss) UTC,Instrument flags,absolute air pressure of the measurement (hPa),sample flow rate (lpm),inlet stack bypass flow (lpm),air temperature of the measurement (°C),ambient temperature measured by the external sensor (°C),aerosol sample conditioner tube jacket temperature (°C),OPC LED temperature (°C),internal box temperature (°C),relative humidity of the measurement (%),span deviation,mass concentration of particles derived from Lorenz-Mie calculation of OPC scattering (μg/m³),mass concentration of particles derived from Lorenz-Mie calculation of OPC scattering (μg/m³),mass concentration of particles derived from Lorenz-Mie calculation of OPC scattering (μg/m³)
DateTimeUTC,F1_M11,P_M11,Q1_M11,Q2_M11,T1_M11,T2_M11,T3_M11,T4_M11,T5_M11,U1_M11,ZSPAN_M11,X0_M11,X2_M11,X1_M11
2023-12-06 05:00:00,SystemResetWarning,0835.6,5.00,000.00,025.7,024.6,000.0,034.1,026.9,13.2,0006.1,0012.61,0006.62,0006.05
2023-12-06 05:01:00,SystemResetWarning,0835.6,5.00,000.00,025.7,024.6,000.0,034.1,027.0,13.2,0004.4,0012.42,0006.47,0005.90
2023-12-06 05:02:00,SystemResetWarning,0835.6,5.00,000.00,025.6,024.6,000.0,034.1,027.0,13.3,0000.9,0012.74,0006.34,0005.79
2023-12-06 05:03:00,SystemResetWarning,0835.7,5.00,000.00,025.6,024.6,000.0,034.1,026.9,13.1,0001.1,0012.70,0006.13,0005.60
2023-12-06 05:04:00,SystemResetWarning,0835.6,5.00,000.00,025.6,024.6,000.0,034.1,026.9,13.0,0000.0,0011.48,0005.82,0005.32
2023-12-06 05:05:00,SystemResetWarning,0835.7,5.00,000.00,025.6,024.6,000.0,034.1,027.0,13.0,0000.0,0010.64,0005.53,0005.07
2023-12-06 05:06:00,SystemResetWarning,0835.7,5.00,000.00,025.6,024.6,000.0,034.1,027.0,13.1,0000.0,0010.21,0005.24,0004.82
2023-12-06 05:07:00,SystemResetWarning,0835.8,5.01,000.00,025.6,024.6,000.0,034.1,026.9,13.2,0000.0,0009.92,0005.00,0004.61
2023-12-06 05:08:00,SystemResetWarning,0835.7,5.01,000.00,025.6,024.6,000.0,034.1,026.9,13.3,0000.0,0009.64,0004.84,0004.44
2023-12-06 05:09:00,SystemResetWarning,0835.8,5.00,000.00,025.6,024.6,000.0,034.1,026.9,13.4,0000.0,0008.80,0004.58,0004.21
2023-12-06 05:10:00,SystemResetWarning,0835.8,5.01,000.00,025.6,024.6,000.0,034.1,026.9,13.4,0000.0,0008.64,0004.34,0004.01
2023-12-06 05:11:00,SystemResetWarning,0835.7,5.01,000.00,025.6,024.6,000.0,034.1,026.9,13.4,0000.0,0008.39,0004.09,0003.80
2023-12-06 05:12:00,SystemResetWarning,0835.6,5.01,000.00,025.6,024.6,000.0,034.0,026.9,13.4,0000.0,0007.98,0003.81,0003.53
2023-12-06 05:13:00,SystemResetWarning,0835.6,5.00,000.00,025.6,024.6,000.0,034.0,026.9,13.4,0000.0,0006.85,0003.45,0003.22
2023-12-06 05:14:00,SystemResetWarning,0835.6,5.00,000.00,025.6,024.6,000.0,034.0,026.9,13.3,0000.0,0005.86,0003.18,0002.87
2023-12-06 05:15:00,SystemResetWarning,0835.6,5.00,000.00,025.6,024.6,000.0,034.0,026.9,13.4,0000.0,0005.44,0002.97,0002.61
2023-12-06 05:16:00,SystemResetWarning,0835.7,5.00,000.00,025.6,024.6,000.0,034.0,026.9,13.4,0000.0,0005.05,0002.64,0002.32
2023-12-06 05:17:00,SystemResetWarning,0835.6,5.00,000.00,025.6,024.6,000.0,034.0,026.8,13.3,0000.0,0004.43,0002.31,0002.00
2023-12-06 05:18:00,SystemResetWarning,0835.7,5.00,000.00,025.6,024.6,000.0,034.0,026.8,13.4,0000.0,0004.00,0002.03,0001.78
2023-12-06 05:19:00,SystemResetWarning,0835.7,5.00,000.00,025.6,024.6,000.0,034.0,026.9,13.4,0000.0,0003.77,0001.85,0001.64
2023-12-06 05:20:00,SystemResetWarning,0835.6,4.99,000.00,025.5,024.5,000.0,034.0,026.8,13.5,0000.0,0003.72,0001.81,0001.62
2023-12-06 05:21:00,SystemResetWarning,0835.7,5.00,000.00,025.5,024.6,000.0,034.0,026.8,13.6,0000.0,0003.83,0001.90,0001.67
2023-12-06 05:22:00,SystemResetWarning,0835.7,4.99,000.00,025.5,024.5,000.0,034.0,026.8,13.6,0000.0,0003.61,0001.93,0001.67
2023-12-06 05:23:00,SystemResetWarning,0835.7,5.00,000.00,025.5,024.5,000.0,034.0,026.8,13.6,0000.0,0003.73,0001.97,0001.69
2023-12-06 05:24:00,SystemResetWarning,0835.6,5.01,000.00,025.5,024.5,000.0,034.0,026.8,13.8,0000.0,0003.77,0002.04,0001.78
2023-12-06 05:25:00,SystemResetWarning,0835.6,5.00,000.00,025.5,024.5,000.0,034.0,026.8,14.1,0000.0,0003.82,0002.16,0001.87
2023-12-06 05:26:00,SystemResetWarning,0835.6,5.00,000.00,025.5,024.5,000.0,034.0,026.8,14.3,0000.0,0003.88,0002.23,0001.93
2023-12-06 05:27:00,SystemResetWarning,0835.6,4.99,000.00,025.5,024.5,000.0,034.0,026.8,14.1,0000.0,0004.00,0002.32,0001.99
2023-12-06 05:28:00,SystemResetWarning,0835.6,4.99,000.00,025.5,024.5,000.0,033.9,026.8,14.0,0000.0,0003.73,0002.38,0002.05
2023-12-06 05:29:00,SystemResetWarning,0835.7,4.99,000.00,025.5,024.5,000.0,033.9,026.8,13.9,0000.0,0003.49,0002.46,0002.13
2023-12-06 05:30:00,SystemResetWarning,0835.6,5.01,000.00,025.5,024.5,000.0,033.9,026.8,13.6,0000.0,0003.76,0002.59,0002.22
2023-12-06 05:31:00,SystemResetWarning,0835.6,5.01,000.00,025.5,024.5,000.0,033.9,026.7,13.5,0000.0,0004.02,0002.75,0002.32
2023-12-06 05:32:00,SystemResetWarning,0835.7,4.99,000.00,025.5,024.5,000.0,033.9,026.7,13.4,0000.0,0003.89,0002.85,0002.43
2023-12-06 05:33:00,SystemResetWarning,0835.6,4.99,000.00,025.5,024.5,000.0,033.9,026.7,13.5,0000.0,0003.87,0002.99,0002.57
2023-12-06 05:34:00,SystemResetWarning,0835.6,4.99,000.00,025.5,024.5,000.0,033.9,026.7,13.5,0000.0,0004.46,0003.19,0002.88
2023-12-06 05:35:00,SystemResetWarning,0835.6,5.01,000.00,025.5,024.5,000.0,033.9,026.8,13.6,0000.0,0005.04,0003.47,0003.21
2023-12-06 05:36:00,SystemResetWarning,0835.6,5.01,000.00,025.5,024.4,000.0,033.9,026.8,13.6,0000.0,0005.67,0003.74,0003.44
2023-12-06 05:37:00,SystemResetWarning,0835.6,4.99,000.00,025.5,024.4,000.0,033.9,026.8,13.6,0000.0,0006.25,0003.89,0003.59
2023-12-06 05:38:00,SystemResetWarning,0835.6,5.00,000.00,025.5,024.5,000.0,033.9,026.8,13.5,0000.0,0007.27,0004.06,0003.72
2023-12-06 05:39:00,SystemResetWarning,0835.7,4.99,000.00,025.5,024.5,000.0,033.9,026.8,13.5,0000.0,0007.68,0004.17,0003.82
2023-12-06 05:40:00,SystemResetWarning,0835.6,5.00,000.00,025.5,024.5,000.0,033.9,026.8,13.6,0000.0,0007.73,0004.19,0003.81
2023-12-06 05:41:00,SystemResetWarning,0835.6,5.01,000.00,025.5,024.5,000.0,033.9,026.8,13.6,0000.0,0007.62,0004.14,0003.76
2023-12-06 05:42:00,SystemResetWarning,0835.6,5.01,000.00,025.5,024.5,000.0,033.9,026.8,13.7,0000.0,0007.60,0004.08,0003.72
2023-12-06 05:43:00,SystemResetWarning,0835.6,5.00,000.00,025.5,024.5,000.0,033.9,026.8,13.6,0000.0,0007.51,0004.03,0003.68
2023-12-06 05:44:00,SystemResetWarning,0835.6,4.99,000.00,025.5,024.5,000.0,033.9,026.7,13.6,0000.0,0007.43,0003.98,0003.64
2023-12-06 05:45:00,SystemResetWarning,0835.7,5.00,000.00,025.4,024.5,000.0,033.9,026.8,13.7,0000.0,0007.16,0003.90,0003.57
2023-12-06 05:46:00,SystemResetWarning,0835.6,5.01,000.00,025.4,024.5,000.0,033.9,026.7,13.6,0000.0,0006.52,0003.69,0003.40
2023-12-06 05:47:00,SystemResetWarning,0835.6,5.01,000.00,025.4,024.5,000.0,033.8,026.8,13.6,0000.0,0005.87,0003.43,0003.19
2023-12-06 05:48:00,SystemResetWarning,0835.6,4.99,000.00,025.4,024.5,000.0,033.8,026.8,13.6,0000.0,0005.41,0003.27,0003.00
2023-12-06 05:49:00,SystemResetWarning,0835.6,4.99,000.00,025.4,024.5,000.0,033.8,026.7,13.6,0000.0,0005.08,0003.13,0002.78
2023-12-06 05:50:00,SystemResetWarning,0835.6,5.00,000.00,025.5,024.5,000.0,033.8,026.7,13.5,0000.0,0004.45,0003.01,0002.67
2023-12-06 05:51:00,SystemResetWarning,0835.6,5.00,000.00,025.4,024.5,000.0,033.8,026.7,13.5,0000.0,0004.52,0003.04,0002.73
2023-12-06 05:52:00,SystemResetWarning,0835.5,5.00,000.00,025.4,024.5,000.0,033.8,026.7,13.5,0000.0,0005.53,0003.11,0002.81
2023-12-06 05:53:00,SystemResetWarning,0835.7,5.00,000.00,025.4,024.5,000.0,033.8,026.7,13.5,0000.0,0006.16,0003.14,0002.87
2023-12-06 05:54:00,SystemResetWarning,0835.5,5.00,000.00,025.4,024.5,000.0,033.8,026.7,13.3,0000.0,0006.46,0003.17,0002.92
2023-12-06 05:55:00,SystemResetWarning,0835.5,4.99,000.00,025.4,024.4,000.0,033.8,026.7,13.1,0000.0,0006.81,0003.22,0002.96
2023-12-06 05:56:00,SystemResetWarning,0835.5,5.00,000.00,025.4,024.4,000.0,033.8,026.7,13.3,0000.0,0006.96,0003.26,0002.96
2023-12-06 05:57:00,SystemResetWarning,0835.5,5.01,000.00,025.4,024.4,000.0,033.8,026.7,13.3,0000.0,0007.19,0003.31,0003.01
2023-12-06 05:58:00,SystemResetWarning,0835.5,5.01,000.00,025.4,024.4,000.0,033.8,026.7,13.3,0000.0,0007.49,0003.34,0003.04
2023-12-06 05:59:00,SystemResetWarning,0835.5,4.99,000.00,025.4,024.4,000.0,033.8,026.7,13.2,0000.0,0008.23,0003.31,0003.02
